WX8TJG-WX Weather Reports


time (UTC)temp
C
wind
direction
speed
KPH
gust
KPH
rain 1hr
cm
rain 24hr
cm
rain mn
cm
humidity
%
barometer
mb
20260502183038 3 15 6.4 12.9 0.00 0.15 0.10 86 1017.9
20260502182018 3 11 8.0 17.7 0.00 0.15 0.10 85 1017.9
20260502181018 3 13 8.0 14.5 0.00 0.18 0.10 85 1018.0
20260502164016 3 345 6.4 12.9 0.03 0.18 0.10 91 1018.1
20260502163017 2 356 8.0 16.1 0.03 0.18 0.10 92 1018.2
20260502162017 2 351 8.0 20.9 0.03 0.20 0.10 92 1018.3
20260502161057 2 343 8.0 14.5 0.05 0.20 0.10 92 1018.4
20260502151018 4 315 6.4 9.7 0.05 0.25 0.05 82 1017.8
20260502123018 1 1 4.8 11.3 0.00 0.66 0.00 90 1016.8
20260502122018 1 350 6.4 9.7 0.00 0.69 0.00 89 1016.8
20260502121018 1 316 4.8 9.7 0.00 0.71 0.00 89 1016.7
20260502115016 1 284 6.4 9.7 0.00 0.71 0.00 88 1016.7
20260502114016 1 283 4.8 11.3 0.00 0.71 0.00 89 1016.7
20260502113016 0 273 3.2 4.8 0.00 0.71 0.00 91 1016.7
20260502112036 0 268 1.6 4.8 0.00 0.71 0.00 92 1016.6
20260502111037 0 288 1.6 3.2 0.00 0.71 0.00 92 1016.5
20260502110018 0 283 1.6 3.2 0.00 0.71 0.00 92 1016.4
20260502105017 0 341 1.6 3.2 0.00 0.71 0.00 92 1016.4
20260502104017 0 345 1.6 3.2 0.00 0.74 0.00 91 1016.4
20260502103017 0 309 0.0 1.6 0.00 0.76 0.00 90 1016.5
20260502102017 0 296 1.6 3.2 0.00 0.76 0.00 90 1016.5
20260502101017 0 285 1.6 3.2 0.00 0.76 0.00 90 1016.4
20260502091037 1 289 3.2 6.4 0.00 0.76 0.00 88 1016.4
20260502071042 2 285 1.6 4.8 0.00 0.76 0.00 93 1016.1
20260502070038 2 245 1.6 4.8 0.00 0.76 0.00 94 1016.1
20260502065017 2 264 1.6 4.8 0.00 0.76 0.00 94 1016.1
20260502064016 2 280 1.6 4.8 0.00 0.76 0.00 94 1016.1
20260502063018 3 280 1.6 3.2 0.00 0.76 0.00 94 1016.2
20260502061015 3 315 0.0 1.6 0.00 0.76 0.00 93 1016.4
20260502060018 3 255 3.2 8.0 0.00 0.76 0.00 93 1016.4
20260502055036 4 275 1.6 8.0 0.00 0.76 0.00 93 1016.5
20260502054016 4 262 1.6 4.8 0.00 0.76 0.00 93 1016.5
20260502053016 4 237 0.0 3.2 0.00 0.76 0.00 92 1016.5
20260502052016 5 275 1.6 3.2 0.00 0.76 0.00 91 1016.5
20260502051017 5 283 6.4 9.7 0.00 0.76 0.00 92 1016.5
20260502050017 5 285 3.2 8.0 0.00 0.76 0.00 94 1016.5
20260502045017 5 281 1.6 4.8 0.00 0.74 0.00 94 1016.5
20260502044017 4 237 1.6 3.2 0.00 0.74 0.00 94 1016.5
20260502043037 4 293 0.0 3.2 0.00 0.74 0.00 94 1016.4
20260502042018 4 244 1.6 4.8 0.00 0.74 0.00 94 1016.4
20260502041017 5 199 0.0 3.2 0.00 0.74 0.00 93 1016.5
20260502040018 5 206 1.6 6.4 0.00 0.74 0.00 94 1016.6
20260502035015 5 200 1.6 6.4 0.00 0.74 0.74 94 1016.6
20260502034015 5 187 3.2 6.4 0.00 0.74 0.74 94 1016.6
20260502033016 4 186 1.6 6.4 0.00 0.74 0.74 94 1016.6
20260502032016 3 176 3.2 6.4 0.00 0.74 0.74 94 1016.7
20260502031015 3 214 0.0 1.6 0.00 0.74 0.74 93 1016.6
20260502030056 3 61 0.0 1.6 0.00 0.74 0.74 92 1016.5
20260502025016 3 13 0.0 1.6 0.00 0.74 0.74 92 1016.5
20260502024016 4 322 0.0 1.6 0.00 0.74 0.74 91 1016.4
20260502023016 4 186 0.0 3.2 0.00 0.74 0.74 91 1016.3
20260502022017 5 35 1.6 3.2 0.00 0.74 0.74 90 1016.3
20260502021017 5 4 0.0 1.6 0.00 0.74 0.74 90 1016.3
20260502020017 5 20 3.2 4.8 0.00 0.74 0.74 90 1016.3
20260502015017 5 22 3.2 4.8 0.00 0.74 0.74 91 1016.3
20260502013017 5 358 0.0 3.2 0.00 0.74 0.74 91 1015.9
20260502012017 5 269 0.0 1.6 0.00 0.74 0.74 91 1015.7
20260502011016 5 0.0 0.0 0.00 0.74 0.74 91 1015.7
20260502005016 5 268 0.0 1.6 0.00 0.74 0.74 89 1015.6
20260502004017 5 357 0.0 1.6 0.00 0.74 0.74 89 1015.7
20260502003015 5 37 0.0 1.6 0.00 0.74 0.74 88 1015.7
20260502002015 6 31 0.0 1.6 0.00 0.74 0.74 87 1015.6
20260502001036 6 0.0 0.0 0.00 0.74 0.74 86 1015.3
20260502000016 6 352 1.6 3.2 0.00 0.74 0.74 85 1015.2
20260501235017 6 299 3.2 6.4 0.00 0.74 0.74 85 1015.1
20260501234016 6 310 3.2 8.0 0.00 0.74 0.74 86 1015.1
20260501233017 6 296 1.6 4.8 0.00 0.74 0.74 85 1015.0
20260501232017 6 339 1.6 3.2 0.00 0.74 0.74 85 1014.9
20260501231017 6 317 4.8 6.4 0.00 0.74 0.74 84 1015.0
20260501230037 6 320 4.8 8.0 0.00 0.74 0.74 85 1015.0
20260501225017 6 349 4.8 9.7 0.00 0.74 0.74 84 1015.0
20260501224017 6 333 4.8 8.0 0.00 0.74 0.74 84 1015.1
20260501223018 6 341 4.8 9.7 0.00 0.74 0.74 85 1015.1
20260501222018 6 1 6.4 9.7 0.00 0.74 0.74 85 1015.2
20260501221018 6 324 8.0 11.3 0.03 0.74 0.74 84 1014.9
20260501220016 6 360 4.8 9.7 0.03 0.74 0.74 85 1014.8
20260501215015 6 355 3.2 8.0 0.03 0.74 0.74 85 1014.7
20260501214015 6 11 6.4 12.9 0.03 0.74 0.74 89 1014.6
20260501213016 5 3 8.0 14.5 0.03 0.74 0.74 90 1014.6
20260501212016 6 359 9.7 19.3 0.03 0.74 0.74 88 1014.5
20260501211016 6 318 6.4 11.3 0.00 0.71 0.71 86 1014.5
20260501210017 6 336 6.4 9.7 0.00 0.71 0.71 85 1014.3
20260501205016 6 344 4.8 8.0 0.00 0.71 0.71 87 1014.2
20260501204017 6 338 8.0 16.1 0.00 0.71 0.71 86 1014.2
20260501203017 6 346 6.4 9.7 0.00 0.71 0.71 88 1014.0
20260501202017 6 9 6.4 9.7 0.00 0.71 0.71 89 1014.0
20260501201017 5 351 8.0 12.9 0.00 0.71 0.71 89 1014.1
20260501200017 6 348 11.3 17.7 0.00 0.71 0.71 89 1013.9
20260501195017 6 327 9.7 14.5 0.00 0.71 0.71 90 1013.6
20260501194017 6 350 11.3 16.1 0.00 0.71 0.71 91 1013.7
20260501193018 6 332 8.0 12.9 0.00 0.71 0.71 92 1013.6
20260501192018 6 354 8.0 14.5 0.03 0.71 0.71 94 1013.4
20260501191018 5 337 9.7 16.1 0.03 0.71 0.71 94 1013.3
20260501190019 5 336 8.0 12.9 0.03 0.71 0.71 95 1013.3
20260501185015 5 343 8.0 14.5 0.03 0.71 0.71 94 1013.2
20260501184016 5 347 8.0 12.9 0.03 0.71 0.71 94 1013.0